Location: Shannon
(40.5500°S, 175.4167°E)
Time: 08:52:13
(UTC+00:00)

Cosmos 1624 Rocket - Pass Details

Date: 17 November 2025
Orbit: 752 x 779 km, 74.0° (Epoch: 14 December)

Event Time Altitude Azimuth Distance (km) Brightness Sun altitude
Rises 14:33:27 0° 199° (SSW) 3,284 7.7 -20.9°
Reaches altitude 10° 14:35:51 10° 198° (SSW) 2,346 6.9 -20.6°
Maximum altitude 14:41:12 86° 109° (ESE) 783 4.0 -19.9°
Enters shadow 14:45:47 14° 20° (NNE) 2,044 5.9 -19.4°
